Location: Unspecified
(64.9000°N, 0.0000°E)
Time: 19:05:32
(UTC+00:00)

Transit 2A - Visible Passes

Search period start: 07 August 2020 00:00
Search period end: 17 August 2020 00:00
Orbit: 591 x 967 km, 66.7° (Epoch: 07 August)

Date Brightness Start Highest point End Pass type
(mag) Time Alt. Az. Time Alt. Az. Time Alt. Az.
07 Aug 6.7 00:49:54 10° W 00:56:12 77° N 01:02:39 10° E visible
07 Aug 6.5 22:32:27 10° SW 22:38:34 68° SE 22:44:56 10° ENE visible
08 Aug 6.7 00:15:40 10° W 00:21:58 80° NNW 00:28:25 10° ENE visible
08 Aug 6.7 01:59:16 10° WNW 02:05:40 80° NNE 02:12:05 10° E visible
08 Aug 6.5 21:58:26 10° SW 22:04:27 60° SE 22:10:45 10° ENE visible
08 Aug 6.6 23:41:27 10° WSW 23:47:43 84° NNW 23:54:11 10° ENE visible
09 Aug 6.7 01:25:03 10° W 01:31:26 78° N 01:37:51 10° E visible
09 Aug 6.5 23:07:15 10° WSW 23:13:31 89° NNW 23:19:59 10° ENE visible
10 Aug 6.8 00:50:49 10° W 00:57:11 76° N 01:03:36 10° E visible
10 Aug 6.5 22:33:05 10° WSW 22:39:19 85° SSE 22:45:47 10° ENE visible
11 Aug 6.8 00:16:34 10° W 00:22:56 76° N 00:29:22 10° E visible
11 Aug 6.6 02:00:08 10° WNW 02:06:35 89° SSW 02:12:57 10° ESE visible
11 Aug 6.5 21:58:56 10° SW 22:05:09 78° SSE 22:11:35 10° ENE visible
11 Aug 6.7 23:42:19 10° W 23:48:41 77° N 23:55:07 10° E visible
12 Aug 6.6 01:25:56 10° WNW 01:32:22 86° NNE 01:38:45 10° ESE visible
12 Aug 6.7 23:08:06 10° W 23:14:26 79° N 23:20:53 10° ENE visible
13 Aug 6.7 00:51:43 10° WNW 00:58:08 81° NNE 01:04:32 10° ESE visible
13 Aug 6.6 22:33:52 10° WSW 22:40:11 83° NNW 22:46:39 10° ENE visible
14 Aug 6.7 00:17:29 10° WNW 00:23:54 78° N 00:30:18 10° E visible
14 Aug 6.5 02:00:58 10° WNW 02:07:22 73° SW 02:13:38 10° SE visible
14 Aug 6.6 21:59:39 10° WSW 22:05:59 87° NNW 22:12:26 10° ENE visible
14 Aug 6.7 23:43:15 10° W 23:49:39 76° N 23:56:03 10° E visible
15 Aug 6.5 01:26:47 10° WNW 01:33:13 81° SSW 01:39:31 10° ESE visible
15 Aug 6.5 21:25:29 10° WSW 21:31:46 87° SSE 21:38:14 10° ENE visible
15 Aug 6.7 23:09:01 10° W 23:15:23 76° N 23:21:49 10° E visible
16 Aug 6.5 00:52:34 10° WNW 00:59:02 88° SSW 01:05:22 10° ESE visible
16 Aug 6.7 02:35:59 10° WNW 02:42:05 47° SW 02:47:59 10° SSE visible
16 Aug 6.7 22:34:46 10° W 22:41:09 77° N 22:47:35 10° E visible
